GFSSW_500_rhum_057.txt.gz
RH
7 6 6 6 6 5 5 5 5 5 7 6 7 6 4 4 3 3 2 7 12 17 13 19 20 23 27 22 28 45 51 98 94 100 99 89 87 97 91 88 68 56 63 59 63
4 4 4 4 4 4 4 4 4 4 4 5 5 7 7 5 5 4 3 2 5 8 16 11 14 16 24 27 34 46 54 97 80 100 100 88 89 97 95 85 76 67 59 56 55
4 4 4 4 3 3 3 3 3 3 3 3 4 4 6 7 6 7 4 3 2 2 6 19 18 21 20 25 28 42 60 76 80 81 86 98 93 98 89 90 76 58 53 50 44
4 4 4 4 4 3 3 3 3 3 3 3 3 3 4 5 6 8 8 6 3 3 2 9 19 26 31 40 38 50 80 71 85 92 92 87 98 93 86 88 70 63 55 46 35
8 8 8 7 6 6 5 4 4 4 4 3 3 3 3 3 4 5 8 9 8 4 3 3 11 21 25 36 41 56 76 77 78 95 85 91 95 98 83 89 61 48 39 38 32
12 11 10 10 9 9 8 7 6 6 6 5 5 4 3 3 3 4 5 6 9 10 4 3 4 11 24 24 26 41 62 78 68 85 97 82 97 90 84 64 51 34 31 30 35
10 11 11 10 9 8 8 7 7 7 7 6 6 6 5 5 4 3 3 4 6 8 12 6 3 4 13 26 28 34 44 62 89 77 95 68 83 72 93 46 32 19 26 32 30
13 12 14 14 14 12 12 10 8 6 6 6 6 5 5 5 5 5 4 3 4 4 6 12 7 4 4 15 25 32 34 43 60 70 93 74 90 58 34 20 16 13 24 27 30
22 17 18 16 16 15 14 12 11 10 9 8 7 5 5 5 4 5 6 5 4 4 4 5 11 8 5 4 12 26 33 40 53 86 82 76 78 98 21 10 9 9 12 18 26
35 32 28 25 24 21 19 15 13 12 10 8 8 9 8 6 6 5 5 5 6 5 5 4 4 10 10 5 5 13 32 44 60 70 67 97 89 96 54 7 6 6 5 12 20
36 36 35 34 30 27 24 22 18 15 13 12 10 10 9 8 8 8 7 6 6 6 6 5 4 4 11 13 6 24 59 46 95 74 73 79 100 97 62 9 8 6 4 10 18
43 34 33 36 35 32 29 27 24 22 21 17 15 15 14 10 8 8 8 8 8 8 7 5 5 5 4 13 12 6 6 38 86 79 95 70 99 99 84 22 12 11 8 7 8
58 54 48 44 39 34 32 34 33 30 27 25 22 20 17 15 11 9 8 8 8 9 8 7 6 7 6 4 12 12 6 6 61 72 53 84 94 82 93 49 14 19 18 13 11
36 58 54 50 49 42 38 40 39 38 32 27 22 19 16 13 12 10 9 8 8 8 9 9 8 7 7 6 4 15 16 6 8 93 95 63 82 69 70 80 21 26 28 14 25
20 45 66 60 52 46 46 46 44 40 26 28 24 19 15 13 11 9 8 8 7 7 7 8 8 8 7 6 6 8 20 15 6 12 60 84 98 100 97 91 54 35 50 31 29
35 45 48 62 67 53 49 47 49 37 25 31 26 22 17 14 13 10 9 8 7 6 6 6 8 8 8 8 7 7 14 20 13 6 8 28 87 88 90 77 97 55 57 58 46
61 71 70 64 66 62 56 47 30 22 32 30 27 18 13 12 9 8 7 7 8 7 6 6 6 6 7 8 8 8 10 22 23 16 5 4 39 80 92 96 80 87 56 59 62
82 82 78 77 64 45 32 27 18 29 27 25 13 11 8 8 7 7 7 7 7 6 7 9 43 6 6 6 8 9 12 20 30 31 12 6 13 28 76 90 90 97 95 66 69
54 44 35 36 34 27 16 5 34 14 7 6 5 6 6 4 7 7 9 9 7 6 6 7 9 55 12 9 7 10 20 11 71 65 49 38 12 14 33 83 76 93 97 93 58
35 14 8 7 6 5 5 10 6 6 6 6 7 7 8 8 6 8 12 10 10 9 10 11 9 20 26 10 7 9 46 36 54 76 63 55 46 34 19 19 70 83 81 38 98
12 8 8 9 9 11 13 14 19 20 22 21 21 20 21 22 16 16 17 13 9 9 11 14 14 17 24 9 5 7 8 74 97 68 72 74 53 58 50 34 13 26 35 25 85
7 8 11 23 27 33 31 26 24 20 25 25 33 38 41 45 45 42 32 30 7 9 12 21 12 11 18 16 16 14 75 36 98 100 73 80 66 63 61 59 39 14 25 28 37
26 37 41 36 31 28 27 24 19 15 14 15 18 20 30 37 51 54 64 69 29 23 27 20 10 14 16 19 19 17 30 74 88 92 93 85 79 85 83 67 73 42 6 26 71
41 40 37 32 26 18 14 12 10 11 11 12 16 20 32 48 58 68 74 86 68 83 59 64 62 52 44 87 85 71 40 55 87 99 93 98 93 86 98 98 83 36 10 27 61
41 36 29 26 24 20 13 9 10 9 7 7 10 15 20 16 32 67 80 92 65 61 59 70 74 75 66 81 68 52 45 72 100 98 86 82 99 96 99 97 97 47 17 12 67
37 31 30 24 17 9 10 12 8 7 7 9 11 12 15 34 39 25 76 100 93 94 82 84 78 76 66 73 66 63 42 33 22 14 52 46 86 97 96 96 97 77 30 14 10
27 27 21 15 10 10 12 9 6 7 9 19 23 19 30 30 43 51 26 50 67 92 93 91 87 98 98 100 75 59 57 45 27 19 12 57 45 93 91 96 86 100 46 14 5

GFSSW_500_rhum_060.txt.gz
RH
6 6 6 5 5 4 4 4 4 5 4 4 4 4 3 4 3 2 3 8 16 18 12 16 25 28 30 26 29 39 55 72 99 79 98 88 97 99 94 95 77 69 65 58 58
4 4 4 4 4 4 4 3 3 3 4 3 4 4 4 4 5 3 2 2 8 13 19 12 12 18 24 27 26 40 71 92 95 98 99 98 89 85 70 96 57 62 65 56 50
4 4 4 3 3 3 3 3 3 3 3 3 3 3 3 4 5 7 4 2 2 5 8 19 14 13 15 22 27 29 55 79 74 91 93 100 92 89 97 91 68 72 64 58 45
4 4 4 4 3 3 3 3 3 3 3 3 3 3 3 3 4 6 6 5 3 2 2 6 18 21 20 20 28 34 42 66 86 72 80 84 96 100 96 96 89 65 58 54 44
10 10 9 8 7 6 5 4 4 3 3 3 3 3 3 3 3 4 6 8 7 4 3 2 8 19 24 18 29 40 41 66 66 92 86 84 95 96 96 97 78 57 45 45 39
12 13 13 12 10 10 9 8 6 6 5 4 4 4 3 2 3 3 4 5 8 8 4 3 2 7 18 19 20 36 46 78 73 69 80 98 79 89 98 69 57 34 37 32 33
12 11 11 10 10 9 9 9 9 8 7 6 6 6 5 5 3 3 3 3 5 6 9 6 3 3 9 20 22 24 34 51 68 76 78 80 98 93 100 78 70 32 23 20 30
26 23 16 13 12 13 12 10 11 9 8 7 7 6 6 5 6 4 3 3 3 4 6 8 7 4 3 9 18 22 34 40 65 81 85 91 95 95 93 95 46 17 16 19 29
33 29 30 23 18 16 16 15 12 12 11 9 8 6 6 6 5 5 5 4 3 3 4 4 8 10 5 4 11 23 28 31 45 45 59 82 79 71 82 60 28 9 10 15 21
42 38 34 35 32 25 22 21 18 16 13 12 11 10 8 7 6 5 5 5 5 4 4 3 4 7 10 5 4 15 25 34 46 54 72 97 77 80 97 65 8 8 9 8 14
45 47 46 39 35 38 34 30 27 22 18 16 13 11 10 9 9 8 7 6 5 4 5 5 4 3 8 14 5 6 45 52 58 98 79 100 82 99 80 77 85 6 5 5 8
37 42 49 52 44 35 34 38 34 30 27 21 17 14 14 11 10 9 9 9 8 7 6 5 5 5 4 10 14 5 10 41 69 94 77 90 87 98 98 65 29 8 7 5 8
13 14 24 53 56 50 45 41 38 35 33 31 27 22 20 17 15 14 12 9 8 9 8 6 6 7 6 4 9 13 6 14 58 93 92 65 76 79 96 59 52 34 10 9 10
24 14 13 17 50 58 55 49 42 38 40 34 34 26 26 24 21 18 16 13 9 9 9 9 8 7 7 6 5 9 15 7 18 86 96 83 49 95 51 98 97 84 14 17 12
40 31 19 15 26 54 62 58 54 48 37 35 29 31 26 22 20 18 16 14 11 10 9 9 9 8 7 7 7 5 14 16 8 7 65 68 99 76 75 68 96 69 17 23 18
47 59 45 32 48 66 73 64 60 54 33 40 36 33 31 28 21 18 14 12 11 10 8 8 10 9 9 8 8 8 7 8 14 9 8 16 75 84 93 73 57 79 56 31 30
7 30 80 75 68 67 72 70 58 45 47 40 36 36 33 28 24 19 15 12 11 9 8 7 7 7 9 8 8 9 8 9 14 16 5 5 11 20 90 54 78 60 98 54 41
6 15 59 86 81 79 78 69 54 74 76 43 34 32 33 29 25 18 12 9 9 9 10 12 26 8 7 7 10 11 10 12 15 8 5 8 7 3 18 90 98 100 92 90 54
11 31 44 32 39 47 33 18 75 85 71 38 38 30 16 17 13 18 9 8 16 10 8 8 13 71 61 23 8 11 48 10 20 52 30 50 22 12 8 42 100 98 89 88 79
18 10 9 8 7 7 8 25 81 34 18 7 6 11 30 69 31 7 6 12 10 8 8 9 8 14 46 83 35 25 14 78 46 39 35 63 54 49 31 13 71 58 86 66 85
7 8 9 11 9 9 41 68 10 12 12 11 10 9 9 14 34 12 52 34 16 7 6 7 7 8 22 40 41 66 15 30 98 90 28 62 52 53 50 48 37 35 30 32 84
26 34 40 37 34 35 32 34 32 20 32 23 29 34 35 33 28 22 38 83 18 11 9 8 7 7 12 9 61 86 37 45 87 78 84 67 64 48 57 58 58 48 92 97 87
36 35 35 32 26 38 18 14 11 10 10 15 17 19 23 32 39 49 60 68 42 28 18 14 10 9 9 9 14 68 33 30 70 73 86 95 72 40 77 68 69 61 56 61 85
31 27 26 25 23 20 14 12 8 13 11 9 8 8 8 9 9 12 16 27 40 32 36 37 34 23 14 31 66 78 85 48 49 82 71 86 89 52 80 90 79 67 69 76 99
21 20 19 12 10 8 9 10 11 9 7 8 9 10 15 15 15 16 16 17 14 27 25 36 50 56 26 26 72 52 48 32 56 25 84 61 91 60 95 95 95 84 71 62 56
23 24 19 11 7 6 9 10 8 8 7 10 15 19 23 22 26 21 17 19 29 25 38 82 44 57 52 57 76 39 30 27 19 15 50 100 76 70 98 80 90 68 86 79 64
39 33 19 12 8 12 11 10 9 9 10 13 16 21 15 18 36 38 25 23 37 46 30 62 66 84 58 59 66 82 53 36 18 12 24 34 39 91 100 79 96 99 96 93 91

GFSSW_500_rhum_063.txt.gz
RH
4 4 4 4 4 4 4 4 4 4 3 3 3 3 3 2 2 2 7 12 14 14 18 26 36 35 35 31 32 37 69 90 98 79 98 86 89 94 90 97 89 78 81 70 59
4 4 4 4 4 4 4 4 3 3 3 3 3 3 3 3 3 2 2 6 10 16 17 13 17 28 31 32 26 35 66 73 85 83 90 75 75 71 85 89 88 72 76 68 48
3 3 3 3 3 3 3 3 3 3 3 3 3 3 3 3 4 4 3 2 4 9 14 19 13 13 18 24 28 29 65 86 83 84 86 92 94 80 76 79 91 71 77 63 55
6 5 4 4 3 3 3 3 3 3 3 3 3 3 3 3 5 4 4 3 3 3 6 9 18 14 16 18 25 31 34 39 80 52 66 90 88 77 94 89 72 73 70 51 49
9 10 10 8 7 6 6 5 4 3 3 3 3 3 3 3 3 4 5 5 4 3 2 3 7 17 20 19 21 36 33 46 73 98 77 77 78 70 83 96 94 69 51 46 43
14 11 11 12 12 12 10 9 8 6 5 4 4 3 2 2 3 3 4 4 7 5 3 3 2 7 18 21 21 30 69 75 91 99 98 81 87 79 86 90 67 52 46 38 30
27 25 19 12 11 11 11 10 10 9 8 6 6 5 4 3 3 3 3 3 5 6 7 3 3 2 8 15 19 24 32 52 76 88 100 97 74 96 97 89 61 41 38 26 22
27 34 31 27 22 13 12 12 10 9 9 9 8 7 6 5 5 4 3 3 3 4 6 8 4 3 3 9 17 18 28 39 61 74 97 92 82 98 98 91 70 24 24 21 24
39 41 41 41 32 28 18 14 14 13 12 10 8 7 7 6 6 6 5 4 3 3 4 6 8 6 4 3 8 19 23 38 56 60 95 81 80 79 81 91 78 21 14 18 24
18 28 40 43 46 39 35 23 17 16 16 13 13 11 7 7 7 6 6 5 5 4 3 4 4 6 7 4 4 11 25 38 41 43 54 98 64 75 97 97 86 45 22 11 13
10 9 14 32 47 51 44 39 31 20 19 19 16 14 11 13 10 8 6 6 6 5 4 3 3 4 8 11 5 4 16 26 53 81 68 84 81 93 84 83 85 26 11 12 8
16 14 13 12 29 56 59 48 38 35 31 25 23 18 15 14 12 11 10 8 6 5 6 5 4 4 4 8 11 5 5 17 39 73 69 74 88 87 92 92 85 94 12 9 6
15 17 18 20 14 18 56 64 48 36 38 36 31 27 21 18 15 13 12 10 10 8 6 5 7 7 5 5 9 11 5 10 32 78 89 79 82 97 92 88 85 97 43 18 5
6 14 31 29 20 19 20 63 66 54 45 40 39 31 33 27 22 15 17 15 12 10 9 8 8 8 6 6 6 11 10 8 18 61 84 92 92 52 69 94 95 82 67 14 6
7 6 17 55 30 20 35 44 68 64 60 46 40 36 32 31 25 23 22 19 17 15 12 10 10 8 8 7 7 6 13 11 21 34 28 44 98 78 76 68 97 91 48 18 22
9 8 8 55 64 48 46 73 71 67 51 55 50 43 38 34 30 25 23 21 19 16 15 12 9 9 9 9 7 7 10 11 12 11 8 28 59 52 62 82 75 94 78 31 18
10 9 8 44 83 77 83 85 76 34 69 53 46 45 41 37 34 31 27 20 18 14 12 10 10 10 9 8 9 9 8 9 8 8 5 13 47 21 32 43 43 83 90 55 25
10 13 31 49 78 63 54 56 42 89 86 69 56 48 44 39 34 33 29 22 15 14 13 11 10 9 17 12 10 9 10 8 7 4 7 14 13 9 15 26 38 16 35 50 45
13 21 32 34 28 58 40 22 94 66 84 75 72 67 54 40 34 32 31 19 11 15 14 12 12 13 10 17 11 14 17 10 11 7 13 13 13 17 21 32 72 48 18 66 77
8 9 9 10 10 16 30 67 58 79 95 86 72 40 43 73 58 29 24 19 15 18 16 14 14 20 20 14 9 8 11 35 17 11 12 8 8 20 48 53 54 67 40 39 94
31 32 18 10 10 12 22 45 44 48 55 50 44 24 15 42 44 55 93 32 16 19 21 16 14 20 44 39 42 46 24 25 31 20 25 19 9 24 73 61 49 47 52 58 60
34 29 32 42 23 17 38 54 31 19 14 14 13 11 11 14 12 12 23 12 10 7 8 9 9 9 11 26 32 26 24 43 43 23 22 27 6 52 73 77 79 65 45 57 60
30 24 22 22 22 18 16 19 16 12 22 28 14 19 20 34 38 45 48 42 19 22 24 21 15 8 6 8 24 19 27 52 55 41 36 48 10 42 68 74 85 74 73 64 61
19 18 19 18 17 13 10 12 10 9 11 10 10 9 8 9 10 11 11 11 10 10 13 17 21 26 17 11 11 39 35 43 35 38 21 52 14 21 59 82 93 86 56 59 66
34 28 22 15 9 7 7 8 9 9 7 7 8 9 11 10 13 12 11 10 10 10 9 9 8 10 21 27 38 13 38 49 37 10 14 21 17 78 52 80 94 96 82 62 57
41 33 26 18 12 8 9 10 10 8 7 8 10 12 15 15 15 15 22 25 21 17 14 13 14 13 8 12 44 32 28 27 25 9 7 11 15 93 54 63 97 94 96 86 73
8 8 7 9 12 16 16 12 12 11 13 13 13 14 13 13 13 18 23 34 35 30 23 21 25 28 19 37 31 44 23 38 21 13 13 16 21 82 54 52 95 96 95 92 85

GFSSW_500_rhum_069.txt.gz
RH
3 3 3 4 4 4 3 3 3 3 3 2 3 3 3 2 2 7 11 12 22 36 47 49 50 44 43 43 43 46 55 66 66 85 87 76 88 96 98 97 83 91 88 61 68
4 3 3 3 3 4 4 4 3 3 3 3 3 3 4 4 3 2 4 11 13 22 34 42 44 46 44 35 34 41 47 70 79 83 92 84 100 98 90 94 89 95 95 65 47
16 14 10 5 3 3 3 3 4 3 3 3 3 3 4 4 4 4 2 4 11 13 17 25 34 38 41 35 34 66 62 50 78 83 80 79 95 99 96 97 94 97 86 66 53
14 14 15 17 14 7 3 3 3 3 4 4 3 3 4 4 5 5 4 3 4 11 15 14 16 19 25 33 32 52 46 40 61 68 67 97 94 99 98 98 95 94 88 61 53
4 5 6 10 14 17 15 5 3 3 3 3 3 3 3 4 4 5 5 5 3 4 8 15 19 19 20 22 28 34 38 32 61 58 51 94 98 98 99 96 95 94 96 64 44
3 3 3 4 10 14 17 19 8 4 4 4 4 3 4 3 3 4 5 7 6 4 3 4 13 17 19 16 19 22 28 32 44 38 43 78 86 90 99 98 97 96 96 65 37
3 3 4 4 6 9 22 26 22 10 7 6 6 4 4 4 4 3 4 6 8 8 5 3 5 8 13 16 12 15 18 32 50 36 64 83 87 100 87 93 98 94 94 59 29
4 5 5 5 5 6 11 29 30 21 9 10 10 8 5 5 7 4 4 5 7 9 7 4 3 3 5 10 15 22 22 25 37 43 65 84 100 77 100 98 99 95 77 51 26
3 2 2 4 6 6 6 6 21 32 22 10 11 11 9 8 9 8 5 4 5 6 7 8 7 4 3 3 9 19 26 28 35 61 61 66 97 87 96 92 85 84 49 28 23
1 1 1 1 2 6 7 7 7 31 34 26 12 13 12 10 9 10 8 7 4 4 6 7 10 8 5 3 3 10 30 35 35 58 48 60 84 97 87 94 82 81 49 22 27
2 3 3 2 2 6 12 15 12 23 43 34 26 14 15 12 11 10 9 9 7 4 4 6 7 12 13 8 4 4 23 35 39 34 36 39 75 79 83 85 72 92 46 32 22
5 6 6 6 7 5 15 23 14 18 38 46 34 20 19 19 16 11 10 9 9 8 6 4 6 11 14 14 6 4 10 43 43 40 26 33 49 82 82 90 92 50 66 31 21
11 7 6 6 8 8 8 30 18 28 54 53 44 36 25 20 19 18 12 11 10 9 9 7 7 6 9 14 12 8 6 38 54 40 26 28 27 53 74 88 97 83 46 44 19
8 6 8 10 10 9 10 39 29 70 83 64 54 50 32 26 22 18 18 14 12 10 9 10 9 6 6 8 13 14 10 28 38 41 33 23 28 57 67 76 84 83 72 57 30
7 9 9 8 12 10 39 61 51 85 99 75 64 51 48 40 29 26 20 17 15 14 10 9 10 10 8 7 8 21 12 45 52 26 25 21 19 77 89 94 71 66 64 37 57
15 12 10 14 24 15 61 88 91 100 96 73 61 57 48 46 40 28 25 20 18 15 13 12 10 9 11 10 8 14 17 14 58 41 19 20 15 51 97 96 79 55 66 71 38
28 14 10 24 51 85 100 100 95 95 90 77 62 52 49 43 39 38 29 27 22 18 16 14 12 12 10 10 9 10 10 15 20 36 27 29 25 35 95 84 100 79 64 56 52
29 23 8 39 54 63 97 75 65 79 87 87 68 55 47 45 40 37 33 28 25 21 18 16 13 12 12 12 10 9 10 10 12 19 46 46 59 44 51 82 68 35 40 87 57
24 29 15 22 42 72 79 57 52 75 88 72 72 69 56 48 41 38 37 34 29 26 22 20 19 16 14 14 14 13 11 10 10 13 24 53 63 67 71 60 49 43 14 51 53
22 23 28 16 25 72 67 100 59 79 84 79 66 60 62 53 48 44 40 37 34 31 27 23 19 18 18 16 16 17 18 15 10 14 19 21 56 65 55 45 42 29 25 12 35
28 21 23 24 23 58 64 100 95 93 85 83 76 68 64 61 57 49 43 40 38 36 32 26 22 19 17 16 17 20 21 19 23 21 19 21 18 26 30 26 32 23 18 21 18
43 39 33 22 23 31 62 98 96 98 97 88 87 81 76 63 45 33 48 52 42 38 35 32 20 19 24 22 18 16 18 24 25 29 32 23 16 15 20 22 20 42 24 12 17
17 25 40 34 21 16 24 46 54 61 69 93 90 89 83 67 54 26 12 21 20 17 28 33 29 20 34 32 24 20 18 16 22 28 36 29 15 14 18 32 36 37 32 14 13
9 8 9 17 26 17 10 12 12 18 46 47 47 35 43 54 21 19 14 15 18 21 19 21 23 26 22 44 40 36 30 22 22 26 27 19 11 17 14 17 30 25 52 27 15
11 10 8 8 8 12 13 10 10 9 9 12 16 18 20 24 24 17 15 13 10 8 8 8 10 11 15 19 29 40 48 39 30 32 37 23 16 14 14 18 20 35 36 39 25
14 12 11 10 8 8 13 14 12 10 9 8 7 7 8 8 9 9 7 6 6 8 7 8 7 6 6 5 9 19 45 65 65 58 38 34 28 21 30 24 25 31 60 46 39
15 14 14 22 20 12 18 28 28 21 18 17 14 8 8 9 11 10 11 10 10 12 13 13 11 10 10 10 11 8 6 17 44 75 61 51 39 19 22 24 24 32 49 71 58

GFSSW_500_rhum_072.txt.gz
RH
5 3 2 3 3 4 4 4 4 3 3 2 3 3 3 3 4 9 10 14 21 32 50 52 53 50 48 47 50 49 52 53 74 77 80 85 90 97 97 98 94 67 85 47 36
10 11 11 8 4 2 3 3 4 4 4 3 3 3 4 4 3 3 9 12 14 23 41 50 49 48 45 40 44 52 51 55 73 81 77 98 98 98 98 96 81 81 95 51 32
6 6 6 8 10 11 8 3 3 3 4 4 4 4 4 5 4 3 3 7 13 16 27 41 46 46 45 44 39 43 52 51 53 61 68 82 90 98 93 96 96 78 94 44 40
4 3 3 3 4 4 7 12 8 2 3 4 4 4 4 5 5 5 4 3 6 15 16 24 34 38 38 38 38 42 50 53 76 82 73 93 88 96 100 98 95 86 66 40 38
5 4 3 3 2 3 3 6 11 12 4 3 4 4 4 4 4 5 7 5 4 6 16 17 21 24 31 34 35 38 51 46 47 72 78 67 97 96 98 92 95 80 71 63 29
5 4 4 3 3 2 2 3 7 13 15 5 3 4 4 4 4 4 5 8 6 4 6 16 20 20 22 27 28 29 32 37 37 51 46 82 91 92 99 84 98 92 82 67 36
4 4 3 3 3 3 3 3 4 10 19 15 5 4 4 4 5 4 5 6 9 8 4 5 12 19 19 16 16 19 21 29 41 45 62 73 75 80 70 80 96 97 94 69 40
4 3 3 2 2 2 3 3 4 4 14 23 11 8 4 5 5 6 5 5 7 10 8 4 4 8 17 16 14 17 20 25 34 40 63 80 78 79 93 96 96 97 87 54 36
3 3 2 2 2 1 2 3 4 5 6 24 21 11 10 7 7 6 7 5 5 8 9 9 5 4 5 9 13 19 22 30 43 48 68 80 77 76 98 98 97 96 82 46 33
3 2 2 2 2 1 1 2 7 7 6 6 29 21 12 12 9 8 8 7 5 5 7 11 10 6 4 3 5 15 22 33 43 46 47 78 79 81 85 86 89 92 71 32 30
2 2 3 5 6 6 4 2 2 10 10 11 25 34 22 14 13 11 10 10 8 5 6 8 12 13 8 5 4 7 17 34 40 52 75 77 64 77 79 72 73 81 79 24 27
2 5 10 11 8 7 8 6 6 7 19 26 45 47 37 21 18 15 11 10 10 9 6 6 8 18 16 9 5 4 8 31 39 40 47 54 59 71 67 66 68 66 72 24 17
4 10 15 12 10 9 9 9 8 34 32 57 69 59 48 32 24 20 15 13 11 10 10 7 7 12 17 16 10 5 5 18 30 23 26 32 52 74 78 60 56 69 70 55 27
7 18 20 14 14 9 10 9 22 62 65 69 80 70 60 43 28 23 19 16 13 11 11 11 7 7 10 17 17 12 7 12 23 17 18 24 37 48 85 80 77 91 79 48 30
24 28 22 18 11 14 20 16 50 91 100 96 89 67 64 51 33 28 24 19 16 13 11 10 11 8 7 12 21 20 12 11 13 14 13 23 25 38 73 73 84 87 81 53 69
29 30 22 21 15 24 36 77 90 100 100 99 91 69 63 59 45 31 29 23 20 16 15 11 11 11 12 8 17 24 16 12 10 13 14 13 18 27 84 94 76 85 78 68 67
25 24 22 29 42 54 92 99 98 98 89 95 92 90 55 48 52 38 29 27 21 18 16 15 12 11 12 11 13 11 23 20 34 32 23 25 15 17 54 96 74 60 58 74 74
19 22 23 27 28 60 86 95 100 99 89 90 85 75 50 38 30 40 30 28 25 20 18 16 14 12 11 11 14 12 12 21 23 33 31 30 24 14 22 98 91 63 60 64 62
32 21 23 36 28 51 92 93 99 100 98 86 74 53 41 40 44 39 36 30 26 25 20 17 16 14 13 12 11 14 15 15 16 22 24 36 24 16 26 51 74 56 47 78 85
29 37 26 29 54 59 85 98 99 100 97 91 64 53 51 45 47 40 36 35 29 26 22 19 16 16 15 16 15 16 18 19 18 21 15 18 22 19 18 40 75 77 46 55 93
8 19 39 23 41 47 68 92 99 99 98 93 94 87 63 48 40 35 35 36 34 30 27 23 21 20 18 17 20 18 20 19 25 20 20 15 15 14 11 18 28 40 43 38 64
7 8 11 34 22 53 65 96 94 97 97 95 92 87 95 93 65 46 40 38 32 26 26 23 23 24 24 24 26 22 23 21 22 22 21 22 16 12 9 10 19 20 22 38 37
9 8 8 10 21 18 45 54 62 69 72 90 95 94 90 78 74 90 90 55 51 48 38 27 23 24 23 24 22 22 22 22 23 20 19 20 18 14 13 10 8 10 10 12 17
11 10 9 9 11 16 13 17 21 38 46 49 78 94 92 84 75 64 56 50 65 66 47 46 35 24 21 27 29 24 20 18 17 18 17 16 16 14 16 17 14 10 8 8 7
12 10 10 9 9 14 13 12 11 12 16 24 37 51 55 33 30 31 28 27 23 25 34 61 56 39 30 28 27 28 28 23 21 19 19 18 17 15 14 16 20 18 14 10 8
13 12 12 18 16 10 17 15 12 10 8 10 15 18 24 27 24 22 20 18 16 17 16 18 19 22 28 33 29 27 28 31 31 25 22 19 18 21 16 14 15 21 53 32 23
11 14 14 21 21 16 13 20 27 22 19 14 9 8 9 8 8 8 8 8 8 7 7 7 8 9 7 7 10 15 21 22 23 32 35 33 25 25 25 20 16 16 20 52 53

GFSSW_500_rhum_075.txt.gz
RH
8 9 9 8 5 3 2 3 3 3 3 3 3 3 3 3 4 7 12 19 24 34 52 56 56 56 54 49 44 47 50 55 68 69 81 83 99 96 99 95 87 76 70 24 20
6 5 5 6 7 9 8 5 2 3 3 3 3 4 4 4 3 4 7 10 16 23 41 53 52 48 52 54 51 50 51 50 65 68 86 100 97 97 96 92 85 88 67 34 21
6 5 4 4 4 4 5 7 8 6 2 3 3 4 4 5 5 3 3 7 11 14 24 47 50 51 50 49 50 47 55 51 53 75 72 91 98 99 93 88 87 79 61 46 23
8 6 6 5 4 3 3 4 5 6 8 5 2 3 4 4 5 5 4 3 7 12 16 32 47 46 46 46 43 45 45 55 67 84 76 84 90 92 97 97 80 72 38 39 24
10 8 7 6 5 4 3 3 3 5 8 10 7 3 3 4 4 5 6 6 4 8 15 22 34 39 42 43 42 40 42 56 64 86 85 74 64 94 89 97 95 73 56 36 24
10 6 4 4 3 3 3 3 2 3 5 9 12 8 3 3 4 4 5 8 7 4 11 17 21 32 37 38 38 38 38 50 47 48 77 53 78 88 98 87 99 78 71 47 28
7 5 4 3 3 3 2 2 3 3 3 5 15 15 8 3 4 5 4 6 9 7 4 12 16 18 23 24 31 33 34 35 36 40 43 65 84 82 89 86 93 87 76 58 32
9 5 3 3 3 3 3 2 2 2 2 3 7 22 14 7 4 5 5 4 6 10 7 4 13 17 18 16 18 24 24 24 28 37 48 55 83 84 76 81 88 88 85 59 40
5 6 3 3 3 3 2 2 2 2 2 3 4 8 23 13 7 5 4 5 5 6 10 8 5 10 18 19 18 20 18 20 26 39 57 64 82 89 74 84 85 99 93 53 30
2 2 2 2 2 2 2 2 1 1 3 6 6 6 14 20 12 7 7 6 6 5 7 10 8 4 6 15 16 21 21 27 32 41 76 74 78 87 84 99 97 95 78 43 24
2 2 3 3 3 3 4 6 5 4 2 2 8 11 23 29 18 12 10 9 7 6 5 8 13 9 5 5 13 20 21 30 30 38 49 58 81 82 86 86 89 81 44 34 19
2 2 2 4 6 9 12 12 12 8 7 4 3 13 27 36 30 15 14 12 9 9 7 6 13 17 10 5 4 7 16 25 28 30 43 62 87 79 88 85 89 68 72 48 16
2 6 11 14 14 14 13 12 12 11 9 7 15 15 46 54 40 24 18 17 13 10 10 7 10 15 15 10 5 4 7 17 23 23 41 84 84 82 85 94 95 86 81 43 25
8 11 15 21 21 21 19 11 6 9 11 17 52 62 73 68 49 30 22 20 17 13 12 10 7 9 15 17 12 5 4 7 13 18 28 44 54 78 83 76 84 92 72 53 31
10 18 24 25 25 28 16 12 19 26 73 84 100 85 82 74 47 35 26 21 18 15 12 12 9 7 8 17 19 14 8 5 5 8 17 39 42 66 94 93 100 100 97 83 40
12 20 23 23 27 35 39 19 76 94 97 99 97 80 81 76 53 37 28 23 19 17 14 12 12 10 10 14 23 21 17 10 6 4 11 26 36 41 51 86 78 77 84 82 92
12 23 19 23 38 43 54 90 100 100 99 98 98 83 67 57 51 40 31 25 22 18 15 13 12 13 12 11 17 19 21 16 13 8 9 11 40 42 42 91 83 84 81 77 68
5 26 32 22 42 59 76 91 100 99 100 98 98 95 78 83 65 40 34 30 26 21 18 15 13 12 14 12 12 13 21 19 14 11 12 9 15 26 36 83 97 98 76 62 71
5 9 27 26 43 64 74 100 100 100 97 98 99 99 68 93 66 47 35 30 27 23 21 18 15 12 13 14 15 12 12 19 20 16 19 20 19 19 20 33 58 86 78 82 84
6 6 11 31 33 55 74 96 99 98 98 98 98 89 82 64 62 47 42 32 24 23 21 18 16 15 13 13 14 15 14 17 15 16 21 21 21 19 21 23 98 95 76 98 88
7 8 8 26 26 43 78 100 94 98 98 98 98 95 90 63 54 36 36 37 27 22 25 27 19 19 17 14 14 14 16 16 24 16 15 13 12 14 18 27 45 92 75 85 97
8 10 8 9 25 29 68 100 91 95 95 97 94 66 92 90 86 76 46 46 38 34 23 23 27 28 24 20 17 15 16 15 19 21 14 12 11 10 9 14 30 94 91 76 70
9 9 8 8 15 20 23 83 88 98 95 96 96 99 84 95 95 93 82 83 58 41 37 29 26 24 25 26 26 19 19 16 17 16 19 21 12 11 9 10 9 18 44 54 43
10 10 10 9 8 13 15 13 34 74 70 63 79 95 96 97 98 97 95 97 96 87 50 31 32 29 26 30 28 25 22 20 19 18 18 18 19 17 14 11 10 11 10 13 26
8 11 11 15 9 9 12 11 12 14 20 30 43 71 98 99 95 95 96 96 94 90 90 65 33 28 25 26 29 28 23 22 22 20 22 23 21 21 20 19 15 14 13 13 9
9 9 12 17 17 10 12 13 11 9 9 14 22 41 57 77 88 90 74 65 69 74 92 73 62 46 30 26 25 26 27 26 22 20 19 19 21 23 20 20 20 17 14 15 15
9 8 8 16 15 10 11 20 19 16 11 8 9 11 15 22 27 29 29 30 29 30 33 39 49 60 66 53 40 31 25 25 29 31 29 25 23 24 23 22 19 18 19 17 16

GFSSW_500_rhum_078.txt.gz
RH
6 6 6 6 8 8 5 3 2 3 3 3 3 3 3 3 3 5 18 20 31 41 54 56 58 52 44 45 43 44 56 66 79 85 84 94 92 88 98 98 78 50 27 16 16
7 6 5 5 5 6 6 7 7 3 3 3 3 3 3 3 3 3 7 14 19 30 44 54 54 55 50 47 46 57 65 59 74 86 82 96 96 94 98 98 71 71 33 20 12
10 8 7 6 4 4 4 4 5 7 8 3 3 3 4 4 4 3 3 7 12 19 31 46 51 52 55 52 49 53 67 57 64 83 92 89 82 75 89 86 73 61 37 26 13
13 12 10 7 6 4 4 4 4 5 5 7 7 3 3 4 4 4 4 4 7 13 17 36 51 51 50 50 50 56 60 56 73 84 93 93 89 83 94 86 70 61 24 27 16
16 13 10 8 7 6 4 3 3 3 4 5 8 8 4 3 4 4 4 5 4 9 15 22 43 49 49 47 46 46 52 54 78 90 98 84 87 92 95 76 77 64 36 21 21
20 15 12 9 6 4 4 4 3 3 3 3 5 9 8 5 3 4 4 5 5 4 13 16 27 45 46 46 45 43 48 51 57 93 69 58 84 94 96 96 88 66 45 29 24
18 16 14 9 6 4 3 3 3 3 3 2 3 4 8 8 6 4 4 4 5 5 4 14 17 27 38 42 42 40 40 55 55 47 50 49 78 85 89 95 92 73 53 39 25
25 18 9 9 7 4 4 3 3 3 2 2 2 2 3 10 10 5 4 4 4 6 6 5 14 17 23 28 38 37 37 46 45 41 40 42 86 84 74 80 89 78 65 48 25
10 5 3 3 4 3 4 3 2 2 2 2 2 2 3 4 9 10 4 5 5 5 7 7 7 15 16 22 24 27 42 34 32 38 41 39 85 83 73 77 85 87 79 58 24
3 3 4 4 3 2 2 2 2 2 2 2 2 3 3 7 10 12 9 4 6 5 5 8 6 7 16 17 20 23 38 24 25 34 43 57 78 93 82 94 99 96 90 53 22
4 3 2 2 2 2 3 3 4 3 2 1 2 3 5 7 12 16 13 7 6 7 5 6 10 6 7 20 21 22 28 29 26 34 49 85 86 85 98 92 98 99 91 51 27
2 2 2 1 2 3 5 6 7 5 5 5 2 2 3 6 12 16 18 12 7 8 7 5 9 12 6 6 15 29 29 28 31 28 40 62 75 86 98 97 97 97 80 37 14
2 2 2 7 11 15 19 17 15 10 8 9 8 5 4 6 15 33 26 16 13 11 9 7 8 12 11 6 5 16 30 33 42 32 30 40 65 98 99 98 92 94 69 53 20
2 2 7 13 15 19 20 21 20 14 10 11 12 9 8 10 23 42 33 23 16 14 12 9 7 10 15 12 6 5 12 16 28 34 60 47 96 96 99 95 97 93 88 79 30
3 3 6 12 16 20 21 25 15 10 49 23 19 20 22 40 54 45 40 25 21 17 13 12 8 8 15 20 13 7 4 6 13 27 24 50 98 87 96 96 97 98 96 83 30
4 4 5 16 18 21 27 36 19 35 100 93 93 69 73 99 70 55 43 27 21 19 15 14 11 11 17 22 20 11 6 5 4 13 24 73 92 71 84 86 100 95 97 86 55
5 4 4 15 28 22 42 50 69 100 90 97 99 92 94 74 71 53 40 30 23 18 16 14 14 10 10 16 18 16 14 9 7 6 40 61 68 55 71 84 96 98 97 98 85
6 5 5 10 32 29 56 78 100 94 99 94 100 98 100 98 67 51 39 29 26 21 19 15 16 15 12 12 12 14 19 45 42 38 62 22 64 22 45 53 80 88 92 99 100
6 6 7 10 31 42 60 100 89 99 92 100 99 100 100 83 70 61 49 37 26 23 99 83 31 14 13 12 10 19 20 78 86 77 71 29 18 27 38 44 82 97 91 98 94
5 7 8 9 28 40 86 99 95 98 99 98 99 96 100 84 76 56 46 38 28 26 27 70 31 14 14 16 15 15 24 30 28 66 76 67 15 11 27 39 47 77 96 94 73
6 8 9 8 26 36 70 100 100 97 96 97 97 100 98 98 100 80 73 39 33 28 25 25 20 18 19 20 19 16 18 20 56 64 67 84 48 15 19 24 24 27 72 92 84
7 9 8 8 14 28 67 84 92 96 100 100 98 98 97 97 96 87 68 63 37 32 28 25 32 29 21 17 19 21 14 18 35 30 39 72 62 14 20 28 29 99 98 89 96
7 9 9 9 10 16 28 87 92 88 98 99 100 97 97 100 97 95 78 87 52 33 30 34 32 24 25 25 24 21 17 19 17 46 70 63 65 18 13 15 32 34 94 92 96
7 9 9 13 8 11 15 28 87 89 88 88 94 94 99 97 99 97 95 87 93 44 32 27 33 42 66 54 26 18 18 18 21 62 90 61 43 13 13 13 13 26 53 94 90
7 8 12 15 14 8 12 14 20 32 36 49 62 96 97 100 97 98 96 97 94 68 42 34 27 28 31 33 28 28 22 22 23 23 56 77 20 14 14 13 13 13 18 52 92
6 5 7 14 12 10 11 12 12 10 9 15 33 52 97 98 98 98 98 99 97 94 80 45 36 33 28 26 24 23 22 23 21 27 29 37 18 17 17 18 18 15 14 14 19
5 5 5 8 14 8 12 15 15 15 10 9 15 25 56 82 97 100 100 98 87 77 83 93 83 45 32 29 28 27 28 25 25 26 26 40 20 23 20 21 21 22 20 16 14

GFSSW_500_rhum_084.txt.gz
RH
11 9 7 6 6 6 5 7 3 3 3 3 3 2 2 2 20 41 49 51 50 48 44 45 44 37 62 62 57 67 84 90 83 90 96 95 90 92 74 70 45 34 12 15 19
20 15 11 9 7 6 6 5 6 6 3 3 3 3 2 2 2 22 44 47 48 50 50 48 48 56 63 58 58 86 87 93 84 82 89 97 98 98 82 61 47 40 13 13 18
32 26 22 15 10 8 6 5 5 5 7 3 3 3 3 2 2 2 10 37 44 45 48 50 48 51 57 56 54 90 83 67 77 87 98 93 90 98 94 68 50 27 16 12 14
34 32 28 22 18 13 11 7 5 4 5 7 5 3 3 3 2 3 2 5 24 33 40 49 51 53 52 55 60 69 72 63 64 76 97 87 97 88 94 84 64 25 15 13 14
35 35 32 27 24 20 15 12 8 5 4 5 6 6 3 3 3 3 3 3 4 18 24 36 49 52 51 54 61 82 66 56 65 82 83 84 82 88 89 97 64 39 19 15 12
34 33 33 31 25 23 18 12 10 8 5 4 4 5 7 3 3 4 4 3 3 5 14 23 36 50 60 50 58 71 71 55 75 95 83 75 93 98 98 88 66 46 22 18 11
29 29 29 28 27 23 19 16 11 8 7 5 4 4 5 5 4 3 4 4 4 3 4 11 21 36 48 54 44 71 76 62 87 91 88 68 76 86 99 96 82 43 22 19 15
28 28 25 21 22 24 24 18 11 7 5 6 4 4 3 4 9 5 4 4 4 4 3 5 9 18 37 49 59 91 64 72 72 55 59 51 95 94 96 95 84 70 32 21 19
26 22 16 10 7 5 7 11 12 7 4 4 4 4 3 4 5 9 6 4 4 5 5 4 4 8 16 36 48 54 56 55 72 47 46 43 96 97 82 84 94 76 47 26 20
25 18 14 8 6 5 5 4 5 6 4 3 3 3 3 4 4 8 10 7 4 4 5 5 5 7 9 16 34 43 50 97 62 59 40 45 46 90 88 72 77 94 69 47 19
20 14 11 10 8 5 3 2 4 4 4 4 3 3 3 3 4 6 12 13 8 4 4 6 6 5 8 13 24 69 75 98 90 71 64 33 56 47 56 70 80 84 88 63 33
11 6 8 8 2 1 2 1 2 3 3 3 3 3 3 3 4 4 8 12 12 7 5 6 5 6 8 14 23 76 97 99 57 96 98 49 95 92 66 68 97 97 93 74 53
8 4 5 5 2 2 2 2 2 2 2 2 3 2 2 3 2 4 5 14 16 11 7 5 5 9 6 9 22 40 98 87 84 96 78 93 67 79 71 76 100 99 97 84 68
6 3 4 2 2 2 2 2 2 2 2 3 2 2 2 2 2 2 4 13 20 17 10 8 6 10 10 6 15 18 67 95 96 97 48 17 85 91 80 52 81 98 97 91 76
5 4 4 3 3 3 3 5 9 18 35 59 18 5 4 3 6 3 4 9 20 23 15 9 8 8 13 10 8 21 95 91 96 98 46 97 96 93 90 48 65 91 98 97 77
4 4 3 4 4 3 4 16 21 22 72 100 70 41 15 7 6 9 5 8 21 28 20 14 10 11 11 19 11 19 93 97 98 80 83 92 97 95 79 78 97 66 88 97 76
4 4 4 4 4 4 12 21 30 62 68 83 93 68 21 23 16 47 9 8 22 28 24 18 15 16 41 28 24 42 68 92 88 90 84 75 92 94 82 60 86 69 84 98 97
4 4 4 3 4 4 22 31 46 87 67 91 56 95 85 89 48 83 94 20 27 39 55 35 29 55 20 10 17 22 50 85 90 85 81 70 75 66 49 85 89 89 77 93 97
5 4 4 5 4 9 24 46 96 84 75 52 47 59 99 100 85 100 94 67 51 57 87 83 45 86 77 25 82 75 32 94 91 75 70 60 75 69 50 73 84 66 84 93 92
5 3 4 5 5 10 22 70 99 54 62 45 65 79 95 98 92 98 92 87 93 99 93 97 68 98 76 87 89 94 50 82 79 85 65 57 55 54 59 60 65 52 58 71 74
4 4 7 7 6 24 97 72 70 63 65 72 72 60 79 70 85 86 97 78 98 78 93 99 74 75 100 41 61 72 82 63 74 81 74 94 86 67 55 44 39 34 32 44 57
4 24 7 7 15 72 89 42 53 79 84 85 72 83 91 96 82 40 47 50 95 82 88 98 86 90 90 87 66 98 93 54 91 61 72 86 97 82 68 62 53 27 25 21 22
4 7 8 7 80 94 71 23 57 76 86 80 97 94 71 74 84 96 88 95 94 100 83 89 90 90 97 84 67 56 68 89 83 87 85 91 76 96 94 80 55 22 20 22 22
4 62 60 12 19 63 95 73 25 72 68 91 96 67 78 97 80 93 95 94 80 79 88 91 98 87 98 96 73 36 56 75 95 92 92 97 79 86 85 74 72 26 21 25 24
5 4 6 28 16 10 8 12 14 48 44 57 71 98 97 92 96 97 75 78 82 76 81 100 100 93 90 99 87 31 27 84 73 67 98 96 78 92 85 73 74 64 15 16 23
6 4 5 7 9 9 8 12 12 10 10 14 71 85 100 98 100 99 90 87 77 60 81 86 97 93 94 83 64 88 48 73 40 63 92 86 73 58 62 67 66 61 33 18 19
7 8 6 6 12 87 10 9 13 14 13 9 20 73 80 90 78 88 83 73 87 70 74 96 86 74 61 66 67 71 81 49 31 81 87 77 67 46 70 86 64 47 39 22 22

GFSSW_500_rhum_087.txt.gz
RH
25 24 17 12 9 6 6 6 5 3 3 3 3 2 2 8 25 52 53 50 49 47 40 37 25 28 43 50 54 66 80 92 85 94 98 83 96 75 57 41 50 13 12 18 20
24 27 26 22 15 10 7 6 6 5 4 3 3 3 2 2 22 40 51 50 50 47 47 48 38 31 52 46 45 89 86 97 65 84 89 98 94 89 72 63 44 23 10 17 19
25 28 29 28 26 20 13 9 6 6 5 5 2 3 3 2 2 18 41 50 49 49 45 47 48 50 51 48 45 91 85 76 68 84 100 93 97 94 73 47 40 18 12 15 20
28 31 34 32 30 27 21 15 10 7 5 5 5 2 3 3 2 2 16 41 48 48 49 51 52 50 61 50 67 97 93 88 73 66 95 83 97 100 91 68 41 17 11 13 17
28 28 28 34 34 30 26 22 17 12 8 5 5 6 3 3 3 3 2 10 41 47 46 50 57 52 52 50 55 92 78 72 80 86 86 82 96 91 89 91 53 20 14 12 15
26 27 25 25 28 31 29 25 22 16 12 8 5 4 6 3 3 4 3 2 5 27 32 40 49 54 50 51 54 62 63 77 64 80 77 86 90 100 98 94 68 24 20 14 10
26 25 26 24 26 26 28 26 22 19 13 9 7 4 5 5 4 4 4 3 3 4 18 18 36 46 48 51 57 94 71 56 47 75 94 75 78 96 98 90 64 45 28 19 13
26 25 24 23 22 22 23 26 24 19 16 11 8 6 4 4 9 4 4 4 4 3 5 15 22 33 46 51 49 61 88 67 75 56 80 70 95 97 89 89 76 51 24 21 19
27 26 25 22 19 17 14 11 14 19 14 11 9 6 5 4 5 9 4 4 5 4 4 7 8 17 29 45 45 51 64 57 48 50 56 64 76 97 97 95 91 71 47 25 23
31 27 21 17 15 13 11 11 7 5 7 7 6 5 5 5 4 7 10 5 4 5 4 4 5 6 10 19 30 53 75 67 88 46 52 50 52 62 68 96 90 89 63 48 28
34 24 17 14 12 10 8 6 7 6 4 5 4 4 3 5 4 4 10 11 5 4 4 4 4 6 8 10 24 44 71 70 97 98 61 72 62 54 65 82 77 75 80 69 52
37 22 12 8 12 9 3 2 2 4 3 4 3 4 3 3 4 4 5 9 9 5 4 4 4 6 12 14 17 31 84 99 74 97 95 90 93 83 56 51 74 85 95 90 59
38 15 6 7 8 7 3 2 2 2 2 2 3 3 3 3 3 4 4 8 13 11 6 4 6 7 7 12 20 22 55 99 100 100 96 93 96 92 73 64 67 94 95 93 67
39 13 4 5 8 3 2 2 2 2 2 2 3 3 3 3 3 3 4 6 13 14 10 6 6 7 7 9 19 21 43 94 77 90 85 92 81 65 86 73 81 82 96 99 89
37 8 4 4 3 3 2 2 2 2 4 26 4 4 9 6 8 4 3 5 9 17 14 8 6 6 7 8 14 22 91 100 97 96 97 97 64 56 84 81 85 53 89 98 88
13 4 5 4 4 3 3 3 6 14 16 65 64 45 22 9 10 8 5 3 10 20 16 14 9 6 7 14 9 56 78 84 90 92 96 78 98 55 66 89 95 78 64 97 93
4 4 4 4 3 3 3 9 17 22 44 97 99 56 49 24 23 14 6 6 7 10 17 16 11 8 11 10 12 29 83 90 99 96 72 88 98 74 77 97 92 81 94 83 98
4 4 4 3 3 4 5 18 29 68 87 62 91 76 72 54 27 27 37 9 8 19 26 24 15 10 9 13 15 9 88 96 92 97 87 79 87 92 90 90 65 82 96 91 96
5 4 3 3 4 4 11 29 92 89 72 58 79 53 74 86 100 59 100 48 24 17 34 46 24 19 19 41 22 12 65 78 100 97 84 75 68 76 76 65 55 63 74 86 90
5 3 8 6 4 3 23 36 84 89 64 44 47 76 69 85 80 94 100 96 78 68 65 86 47 26 30 64 34 28 54 86 91 87 94 75 64 66 62 64 67 56 48 46 62
3 3 6 4 6 6 35 79 57 58 44 72 56 77 44 80 95 90 98 95 92 76 83 98 51 43 88 83 36 27 44 69 77 88 92 97 95 86 64 59 54 45 29 32 35
4 6 6 8 9 23 61 84 42 61 78 81 61 76 56 61 91 78 93 97 72 80 100 75 77 65 80 70 83 51 35 46 70 88 100 96 94 81 88 83 76 59 50 52 31
4 16 26 24 14 66 70 72 30 64 70 86 89 86 82 73 97 83 89 98 84 81 93 64 91 60 76 98 90 83 75 78 41 88 94 96 93 86 91 98 84 74 68 54 43
5 12 100 86 72 44 93 75 86 60 78 100 99 85 100 78 87 97 87 89 97 85 82 94 95 63 75 86 100 100 86 67 61 68 91 93 75 82 86 81 91 83 68 47 34
5 4 7 68 41 13 16 12 94 29 43 70 74 99 100 96 92 85 77 78 85 91 98 99 100 88 72 100 93 62 81 74 72 81 100 81 76 92 88 83 76 85 82 56 29
6 4 4 8 16 69 18 12 12 10 10 20 84 89 95 97 84 64 55 74 83 100 91 90 89 93 74 95 84 54 46 66 100 88 94 81 92 98 80 70 66 69 83 77 33
5 7 7 6 10 8 14 7 9 14 12 8 16 74 70 99 97 89 66 65 69 68 90 93 94 97 98 98 97 86 96 99 98 95 78 62 66 76 79 92 74 71 75 72 56